Weather History for Medicine Lodge, KS

Change the Weather History Date:

Monday, December 17, 2012

  Actual Average Record
Temperature  
Mean Temperature 43 °F 34 °F  
Max Temperature 56 °F 45 °F 79 °F (1939)
Min Temperature 30 °F 23 °F 1 °F (1979)
Degree Days  
Heating Degree Days 22 31  
Month to date heating degree days 367 495  
Since 1 July heating degree days 1103 1353  
Cooling Degree Days 0 0  
Month to date cooling degree days 0 0  
Year to date cooling degree days 2258 1770  
Moisture  
Dew Point 30 °F    
Average Humidity 61    
Maximum Humidity 92    
Minimum Humidity 30    
Precipitation  
Precipitation 0.00 in 0.03 in 0.42 in (1990)
Month to date precipitation 0.18 0.52  
Year to date precipitation 18.10 26.74  
Snow  
Snow 0.00 in 0.10 in - ()
Month to date snowfall 0.0 1.7  
Since 1 July snowfall 0.0 1.9  
Snow Depth 0.00 in    
Sea Level Pressure  
Sea Level Pressure 29.78 in    
Wind  
Wind Speed 7 mph (West)    
Max Wind Speed 17 mph    
Max Gust Speed 22 mph    
T = Trace of Precipitation, MM = Missing Value Source: NWS Daily Summary

Daily Weather History Graph

Daily Weather History Graph

Search for Another Location

Airport:

Trip Planner

Search our weather history database for the weather conditions in past years. The results will help you decide how hot, cold, wet, or windy it might be!

Date:

Astronomy

Dec. 17, 2012 Rise Set
Actual Time 7:42 AM CST 5:18 PM CST
Civil Twilight 7:13 AM CST 5:47 PM CST
Nautical Twilight 6:40 AM CST 6:20 PM CST
Astronomical Twilight 6:08 AM CST 6:52 PM CST
Moon 10:57 AM CST (12/17) 10:35 PM CST (12/17)
Length of Visible Light 10h 34m
Length of Day
9h 36m
Waxing Crescent, 25% of the Moon is Illuminated
Dec 17
Waxing Crescent
Dec 19
First Quarter
Dec 28
Full
Jan 4
Last Quarter
Jan 11
New

Hourly Weather History & Observations

Time (CST) Temp. Windchill Dew Point Humidity Pressure Visibility Wind Dir Wind Speed Gust Speed Precip Events Conditions
12:56 AM 37.9 °F 32.1 °F 33.1 °F 83% 29.83 in - NNW 8.1 mph - N/A   Unknown
1:56 AM 37.9 °F 33.5 °F 33.1 °F 83% 29.81 in - NW 5.8 mph - N/A   Unknown
2:56 AM 37.9 °F 32.7 °F 34.0 °F 86% 29.83 in - WNW 6.9 mph - N/A   Unknown
3:56 AM 37.0 °F 32.4 °F 32.0 °F 82% 29.81 in - NW 5.8 mph - N/A   Unknown
4:56 AM 34.0 °F 29.8 °F 30.9 °F 89% 29.82 in - NNW 4.6 mph - N/A   Unknown
5:56 AM 33.1 °F 27.7 °F 30.0 °F 89% 29.83 in - NW 5.8 mph - N/A   Unknown
6:56 AM 30.9 °F 26.2 °F 28.9 °F 92% 29.85 in - NNW 4.6 mph - N/A   Unknown
7:56 AM 30.0 °F 25.2 °F 28.0 °F 92% 29.85 in - North 4.6 mph - N/A   Unknown
8:56 AM 34.0 °F 31.0 °F 30.9 °F 89% 29.85 in - NNW 3.5 mph - N/A   Unknown
9:56 AM 39.9 °F 34.5 °F 32.0 °F 73% 29.86 in - NW 8.1 mph - N/A   Unknown
10:56 AM 46.0 °F 41.4 °F 32.0 °F 58% 29.85 in - WNW 9.2 mph - N/A   Unknown
11:56 AM 53.1 °F - 30.9 °F 43% 29.81 in - West 6.9 mph - N/A   Unknown
12:56 PM 54.0 °F - 28.9 °F 38% 29.76 in - WSW 9.2 mph - N/A   Unknown
1:56 PM 55.0 °F - 28.0 °F 35% 29.73 in - SW 10.4 mph - N/A   Unknown
2:56 PM 55.9 °F - 24.1 °F 29% 29.72 in - SW 9.2 mph - N/A   Unknown
3:56 PM 55.0 °F - 27.0 °F 34% 29.70 in - SW 11.5 mph - N/A   Unknown
6:56 PM 46.0 °F 41.4 °F 30.0 °F 54% 29.71 in - South 9.2 mph - N/A   Unknown
7:56 PM 44.1 °F 39.0 °F 30.9 °F 60% 29.72 in - South 9.2 mph - N/A   Unknown
8:56 PM 41.0 °F 35.2 °F 30.9 °F 67% 29.70 in - South 9.2 mph - N/A   Unknown
9:56 PM 39.9 °F 33.9 °F 30.9 °F 70% 29.68 in - South 9.2 mph - N/A   Unknown
10:56 PM 37.9 °F 35.5 °F 30.0 °F 73% 29.68 in - SSE 3.5 mph - N/A   Unknown
11:56 PM 37.0 °F 31.6 °F 28.9 °F 73% 29.67 in - SSE 6.9 mph - N/A   Unknown